{"data":{"norad_id":62080,"epoch":"2026-09-22T13:35:12.087168Z","epoch_age_seconds":128933,"freshness":"FRESH","line1":"1 62080U 24218C   26265.56611212 -.00000042  00000+0  11812-5 0  9992","line2":"2 62080  97.4388 271.5192 0001395  95.9431 264.1963 15.19719194101238","mean_motion":15.19719194,"eccentricity":0.0001395,"inclination_deg":97.4388,"raan_deg":271.5192,"arg_perigee_deg":95.9431,"mean_anomaly_deg":264.1963,"bstar":1.1812e-6,"rev_number":10123,"period_min":94.754347098152,"perigee_km":505.72814542593,"apogee_km":507.64901176236,"semimajor_km":6884.8255785941,"source":"CELESTRAK","updated_at":"2026-09-23T09:00:21.209986Z"}}